EW7554 Weather Reports


Display with metric or nautical units.
time (UTC)temp
F
wind
direction
speed
MPH
gust
MPH
rain 1hr
in
rain 24hr
in
rain mn
in
humidity
%
barometer
mb
20260505191531 49 313 8.0 18.0 0.00 0.00 0.00 39 1012.1
20260505190030 49 315 10.0 19.0 0.00 0.00 0.00 39 1012.1
20260505184529 49 265 4.0 19.0 0.00 0.00 0.00 40 1012.2
20260505183030 49 295 10.0 21.0 0.00 0.00 0.00 39 1012.2
20260505181528 49 283 10.0 20.0 0.00 0.00 0.00 39 1012.3
20260505180051 48 290 8.0 15.0 0.00 0.00 0.00 39 1012.2
20260505174547 49 294 6.0 17.0 0.00 0.00 0.00 39 1012.2
20260505173032 49 290 9.0 18.0 0.00 0.00 0.00 37 1012.2
20260505171525 48 246 7.0 15.0 0.00 0.00 0.00 40 1012.4
20260505170023 47 279 7.0 12.0 0.00 0.00 0.00 39 1012.3
20260505164523 48 249 5.0 11.0 0.00 0.00 0.00 39 1012.3
20260505163024 48 284 3.0 12.0 0.00 0.00 0.00 39 1012.3
20260505161519 47 294 9.0 16.0 0.00 0.00 0.00 39 1012.4
20260505153012 46 316 6.0 16.0 0.00 0.00 0.00 42 1012.3
20260505151513 46 285 6.0 17.0 0.00 0.00 0.00 44 1012.1
20260505124535 40 355 4.0 11.0 0.00 0.00 0.00 49 1010.9
20260505123025 40 340 5.0 11.0 0.00 0.00 0.00 51 1010.6
20260505121522 40 304 5.0 12.0 0.00 0.00 0.00 55 1010.4
20260505120018 39 323 4.0 12.0 0.00 0.00 0.00 56 1010.2
20260505114514 39 313 5.0 13.0 0.00 0.00 0.00 59 1010.0
20260505113009 39 338 6.0 10.0 0.00 0.00 0.00 61 1009.6
20260505111506 39 304 1.0 10.0 0.00 0.00 0.00 63 1009.5
20260505101558 40 325 3.0 9.0 0.00 0.00 0.00 63 1009.1
20260505100056 40 314 4.0 9.0 0.00 0.00 0.00 63 1009.0
20260505094554 40 319 4.0 10.0 0.00 0.00 0.00 62 1008.9
20260505093052 40 301 4.0 9.0 0.00 0.00 0.00 62 1008.7
20260505091607 41 298 4.0 10.0 0.00 0.00 0.00 60 1008.7
20260505090047 41 290 3.0 12.0 0.00 0.00 0.00 59 1008.5
20260505084544 41 322 5.0 13.0 0.00 0.00 0.00 57 1008.3
20260505083041 42 325 6.0 14.0 0.00 0.00 0.00 56 1008.1
20260505081540 42 292 6.0 12.0 0.00 0.00 0.00 54 1007.9
20260505080038 42 300 6.0 15.0 0.00 0.00 0.00 53 1007.9
20260505074536 42 355 7.0 14.0 0.00 0.00 0.00 53 1007.7
20260505073034 42 298 5.0 12.0 0.00 0.00 0.00 54 1007.7
20260505071529 43 321 5.0 13.0 0.00 0.00 0.00 54 1007.8
20260505070031 43 266 4.0 12.0 0.00 0.00 0.00 54 1007.7
20260505064525 44 292 5.0 11.0 0.00 0.00 0.00 54 1007.8
20260505063024 44 292 4.0 11.0 0.00 0.00 0.00 52 1007.6
20260505061526 44 313 4.0 12.0 0.00 0.00 0.00 51 1007.8
20260505060020 44 310 4.0 12.0 0.00 0.00 0.00 52 1007.8
20260505054517 44 289 3.0 8.0 0.00 0.00 0.00 55 1007.6
20260505053016 44 297 4.0 8.0 0.00 0.00 0.00 56 1007.6
20260505051530 44 286 3.0 8.0 0.00 0.00 0.00 56 1007.3
20260505041503 44 268 3.0 7.0 0.00 0.00 0.00 53 1007.2
20260505040002 44 260 2.0 8.0 0.00 0.00 0.00 52 1007.1
20260505034601 44 247 2.0 7.0 0.00 0.00 0.00 51 1007.0
20260505033059 45 251 1.0 4.0 0.00 0.00 0.00 51 1007.0
20260505031559 45 253 1.0 5.0 0.00 0.00 0.00 49 1007.0
20260505030055 45 243 2.0 7.0 0.00 0.00 0.00 48 1006.9
20260505024554 46 265 1.0 4.0 0.00 0.00 0.00 48 1006.8
20260505023050 47 263 1.0 7.0 0.00 0.00 0.00 46 1006.6
20260505021551 47 292 4.0 8.0 0.00 0.00 0.00 45 1006.3
20260505020044 47 293 4.0 10.0 0.00 0.00 0.00 45 1006.2
20260505014543 48 312 5.0 17.0 0.00 0.00 0.00 42 1006.0
20260505013040 49 315 10.0 21.0 0.00 0.00 0.00 42 1005.9
20260505011537 49 286 7.0 15.0 0.00 0.00 0.00 42 1005.8
20260505010037 50 317 10.0 20.0 0.00 0.00 0.00 42 1005.2
20260505004529 51 309 11.0 22.0 0.00 0.00 0.00 43 1005.0
20260505003025 52 355 13.0 27.0 0.00 0.00 0.00 40 1004.8
20260505001523 52 328 10.0 22.0 0.00 0.00 0.00 40 1004.4
20260505000020 53 314 12.0 24.0 0.00 0.00 0.00 39 1004.1
20260504234521 53 296 12.0 24.0 0.00 0.00 0.00 38 1004.0
20260504233016 53 274 12.0 23.0 0.00 0.00 0.00 39 1004.0
20260504231513 54 304 11.0 21.0 0.00 0.00 0.00 38 1003.8
20260504230012 54 337 11.0 25.0 0.00 0.00 0.00 40 1003.6
20260504224509 54 269 10.0 29.0 0.00 0.00 0.00 40 1003.4
20260504223006 55 275 9.0 26.0 0.00 0.00 0.00 40 1003.2
20260504221502 56 273 10.0 25.0 0.00 0.00 0.00 39 1002.7
20260504220002 57 334 13.0 31.0 0.00 0.00 0.00 39 1002.5
20260504214559 56 301 12.0 25.0 0.00 0.00 0.00 40 1002.1
20260504213059 57 309 11.0 26.0 0.00 0.00 0.00 39 1002.1
20260504211556 58 328 12.0 26.0 0.00 0.00 0.00 38 1001.8
20260504210107 60 287 6.0 20.0 0.00 0.00 0.00 37 1001.7
20260504204605 58 304 9.0 23.0 0.00 0.00 0.00 38 1001.5
20260504203106 60 337 12.0 23.0 0.00 0.00 0.00 37 1001.5
20260504201555 59 302 14.0 26.0 0.00 0.00 0.00 38 1001.3
20260504200053 59 284 9.0 22.0 0.00 0.00 0.00 40 1001.1
20260504194601 59 297 13.0 26.0 0.00 0.00 0.00 38 1001.2
20260504193052 61 327 8.0 21.0 0.00 0.00 0.00 38 1000.9